[[{"header":{"parameterUnit":"m.s-1","parameterCategory":1,"la1":30.2991,"la2":30.254,"lo1":-89.0895,"lo2":-89.0444,"dy":0.0017,"dx":0.0017,"nx":28,"ny":28,"refTime":"2023-10-22T03:00:00:Z","depth":0,"parameterNumber":2,"parameterNumberName":"U-component_of_WINDS"},"data":[0,0,0,0,0,0,0,0,0,0,0,0,0,0,0,0,0,0,0,0,0,0,0,0,0,0,0,0,0,0,0,0,0,0,0,0,0,0,0,0,0,0,0,0,0,0,0,0,0,0,0,0,0,0,0,0,0,0,1.8096,1.8097,0,1.8187,1.8188,1.8189,1.8189,1.8188,1.8187,1.8186,1.8278,1.8281,1.8285,0,0,0,0,0,0,0,0,0,0,0,0,0,1.7923,1.7927,1.8096,1.8098,1.8099,1.8187,1.8188,1.8189,1.819,1.8188,1.8187,1.8185,1.8277,1.8281,1.8285,0,0,0,0,0,0,0,0,0,0,0,0,0,1.8005,1.7928,1.8096,1.8109,1.8112,1.8187,1.8188,1.819,1.819,1.8188,1.8186,1.8185,1.8275,1.828,1.8286,1.8353,0,0,1.8302,1.8304,0,0,0,0,0,0,0,0,1.8,1.8011,1.8106,1.8109,1.8111,1.8175,1.8161,1.8244,1.819,1.816,1.8186,1.8184,1.8245,1.8253,1.8273,1.8358,1.8361,1.8302,1.8306,1.8308,1.8309,0,0,0,0,0,0,0,1.7994,1.8007,1.8132,1.8108,1.8111,1.8111,1.812,1.8177,1.8211,1.8163,1.8163,1.8174,1.8246,1.8268,1.8276,1.8363,1.8302,1.8307,1.831,1.8312,1.8508,1.851,0,0,0,0,0,0,1.7986,1.8002,1.8129,1.8135,1.805,1.8115,1.8126,1.8156,1.8211,1.8217,1.8175,1.8173,1.826,1.8269,1.8279,1.8362,1.8308,1.8313,1.8316,1.8506,1.8509,1.8511,0,0,0,0,0,0,1.7982,1.7998,1.8126,1.8069,1.8085,1.812,1.8154,1.8159,1.8181,1.822,1.8226,1.8192,1.8259,1.8271,1.8335,1.8365,1.8315,1.832,1.8504,1.8507,1.851,1.8529,0,0,0,0,0,0,1.7978,1.7996,1.8022,1.8069,1.8088,1.818,1.8156,1.8162,1.8191,1.8189,1.8237,1.8243,1.8259,1.8327,1.834,1.8372,1.8324,1.8501,1.8505,1.8509,1.8526,1.8532,1.8538,0,0,0,0,0,1.7971,1.8024,1.8023,1.8039,1.8121,1.8182,1.8193,1.821,1.8193,1.822,1.8245,1.8242,1.836,1.8334,1.8348,1.8382,1.8499,1.8504,1.8508,1.8523,1.8531,1.8538,0,0,0,0,0,0,1.7978,1.803,1.803,1.81,1.8137,1.8182,1.8216,1.8217,1.826,1.8256,1.8275,1.8286,1.835,1.8372,1.8342,1.8451,1.8428,1.8435,1.8434,1.8442,1.8448,1.8441,1.8328,0,0,0,0,0,1.7988,1.8033,1.8076,1.8133,1.8151,1.8181,1.8207,1.8217,1.8256,1.8272,1.8301,1.8339,1.8385,1.8415,1.8459,1.8529,1.854,1.856,1.8566,1.8571,1.8577,1.8617,1.8626,1.8526,1.8526,1.8526,0,0,1.8008,1.8042,1.8069,1.8135,1.8165,1.8211,1.8194,1.8243,1.8278,1.8279,1.8341,1.8365,1.8408,1.8476,1.8507,1.8496,1.8607,1.8576,1.858,1.8584,1.8623,1.8632,1.8641,1.8529,1.8528,1.8528,0,0,1.8069,1.8099,1.815,1.8181,1.8226,1.8246,1.8258,1.8304,1.8319,1.8382,1.8384,1.8426,1.8504,1.8535,1.8561,1.8635,1.8635,1.8649,1.8681,1.8719,1.8727,1.8734,1.8761,1.8771,1.8655,1.8655,1.8656,0,1.8088,1.8158,1.8176,1.8226,1.8255,1.826,1.8312,1.834,1.8398,1.8418,1.8405,1.8504,1.8534,1.8609,1.8627,1.8648,1.8663,1.8644,1.8725,1.8732,1.8739,1.8765,1.8775,1.8657,1.8657,1.8657,1.8656,0,1.818,1.8229,1.8265,1.8321,1.8354,1.8405,1.843,1.8462,1.8469,1.849,1.8554,1.859,1.8642,1.866,1.8668,1.8737,1.873,1.8721,1.8698,1.875,1.8774,1.8784,1.8659,1.8659,1.8658,1.8658,0,0,1.8247,1.8313,1.8326,1.8352,1.8403,1.8441,1.8493,1.8544,1.8571,1.8611,1.8654,1.8721,1.8714,1.8743,1.8754,1.8788,1.8845,1.8776,1.8777,1.8788,1.8925,1.8932,1.8943,1.8845,1.8847,1.8849,1.8922,0,1.8313,1.8405,1.8423,1.8502,1.8548,1.8553,1.8598,1.8634,1.8655,1.8697,1.872,1.8767,1.8754,1.8772,1.8806,1.8831,1.8873,1.8826,1.8887,1.8888,1.8876,1.8955,1.8962,1.9029,1.8931,1.8933,1.8934,0,1.8403,1.8446,1.853,1.8576,1.8596,1.8636,1.8685,1.8725,1.8766,1.8779,1.8813,1.8821,1.8875,1.8849,1.8924,1.8892,1.8918,1.8934,1.8937,1.8943,1.8914,1.8964,1.9051,1.9061,1.8949,1.8948,1.8947,0,1.8443,1.8522,1.8583,1.8605,1.866,1.8689,1.8713,1.8753,1.8783,1.8826,1.8846,1.8894,1.8921,1.8958,1.8979,1.8958,1.9052,1.9029,1.9065,1.9064,1.9084,1.9082,1.9176,1.9101,1.91,1.91,1.91,0,1.8516,1.8567,1.8602,1.864,1.8698,1.8718,1.8775,1.8799,1.8835,1.8877,1.8884,1.8924,1.8949,1.8992,1.9009,1.9069,1.908,1.9093,1.9096,1.9092,1.9091,1.9109,1.9105,1.9103,1.9102,1.9102,1.9101,0,1.8571,1.8596,1.8663,1.8711,1.8724,1.8764,1.8805,1.8842,1.8863,1.8917,1.893,1.8964,1.9015,1.904,1.9103,1.9115,1.9183,1.9183,1.9169,1.917,1.9205,1.9202,1.9314,1.933,1.9244,1.9244,1.9245,0,1.8615,1.8655,1.8707,1.8736,1.8761,1.8808,1.8839,1.8861,1.8893,1.8944,1.8975,1.9027,1.9069,1.9151,1.9182,1.9231,1.9232,1.9269,1.924,1.9235,1.9234,1.9231,1.9235,1.9274,1.9274,1.9275,1.9276,0,1.8691,1.8702,1.8747,1.8797,1.8833,1.8873,1.8912,1.8936,1.8964,1.9,1.9053,1.9086,1.9151,1.9203,1.9254,1.9279,1.9283,1.9285,1.9296,1.9292,1.9282,1.9288,1.9183,1.9282,1.9281,1.9281,1.928,1.928,1.8743,1.8779,1.8821,1.8871,1.8903,1.894,1.8977,1.9003,1.9048,1.9103,1.9114,1.917,1.9212,1.9281,1.9308,1.9353,1.9345,1.936,1.9364,1.9368,1.937,1.9275,1.9362,1.9362,1.9362,1.9362,1.9362,0,1.882,1.8848,1.8893,1.8948,1.8988,1.8988,1.9031,1.9064,1.9114,1.9153,1.9195,1.9256,1.9307,1.9341,1.9392,1.9422,1.9424,1.9434,1.9432,1.9438,1.9374,1.936,1.9431,1.9431,1.9431,1.9431,1.9431,1.9431,1.8864,1.8926,1.8942,1.9019,1.9047,1.9103,1.9128,1.9162,1.9193,1.9261,1.9303,1.9326,1.9363,1.9418,1.9464,1.9473,1.9492,1.9502,1.9511,1.945,1.9443,1.9436,1.9422,1.9506,1.9506,1.9571,1.9571,1.9572]},{"header":{"parameterUnit":"m.s-1","parameterCategory":1,"la1":30.2991,"la2":30.254,"lo1":-89.0895,"lo2":-89.0444,"dy":0.0017,"dx":0.0017,"nx":28,"ny":28,"refTime":"2023-10-22T03:00:00:Z","depth":0,"parameterNumber":3,"parameterNumberName":"V-component_of_WINDS"},"data":[0,0,0,0,0,0,0,0,0,0,0,0,0,0,0,0,0,0,0,0,0,0,0,0,0,0,0,0,0,0,0,0,0,0,0,0,0,0,0,0,0,0,0,0,0,0,0,0,0,0,0,0,0,0,0,0,0,0,1.1615,1.1615,0,1.1627,1.1627,1.1628,1.1599,1.1598,1.1597,1.1596,1.1609,1.161,1.1611,0,0,0,0,0,0,0,0,0,0,0,0,0,1.1564,1.1565,1.1615,1.1615,1.1615,1.1627,1.1627,1.1628,1.1599,1.1598,1.1597,1.1596,1.1608,1.161,1.1611,0,0,0,0,0,0,0,0,0,0,0,0,0,1.1582,1.1566,1.1614,1.1602,1.1601,1.1627,1.1627,1.1628,1.1599,1.1598,1.1596,1.1595,1.1608,1.1609,1.1611,1.165,0,0,1.1617,1.1618,0,0,0,0,0,0,0,0,1.1581,1.1584,1.1604,1.1603,1.1602,1.161,1.1614,1.1635,1.1599,1.16,1.1596,1.1594,1.161,1.1612,1.1617,1.1651,1.1651,1.1617,1.1618,1.1619,1.1619,0,0,0,0,0,0,0,1.158,1.1584,1.162,1.1604,1.1603,1.1595,1.1596,1.1618,1.1613,1.16,1.1598,1.16,1.1609,1.1615,1.1617,1.1651,1.1617,1.1618,1.162,1.162,1.1717,1.1718,0,0,0,0,0,0,1.1581,1.1583,1.1619,1.162,1.1588,1.1597,1.1599,1.1609,1.1612,1.1611,1.1601,1.1598,1.1613,1.1615,1.1618,1.1663,1.1619,1.162,1.1621,1.1715,1.1717,1.1719,0,0,0,0,0,0,1.158,1.1584,1.1619,1.1601,1.1605,1.16,1.1611,1.161,1.1616,1.1613,1.1612,1.1608,1.1612,1.1615,1.1642,1.1663,1.1621,1.1623,1.1713,1.1716,1.1718,1.1754,0,0,0,0,0,0,1.1578,1.1584,1.1599,1.1601,1.1606,1.1643,1.1613,1.1611,1.1619,1.1616,1.162,1.1619,1.1611,1.164,1.1644,1.1665,1.1624,1.1712,1.1714,1.1717,1.1751,1.1758,1.1763,0,0,0,0,0,1.1577,1.1609,1.16,1.1604,1.1624,1.1645,1.1647,1.1638,1.1621,1.1636,1.1634,1.1619,1.166,1.1643,1.1647,1.1669,1.171,1.1714,1.1717,1.1749,1.1756,1.1763,0,0,0,0,0,0,1.1609,1.1609,1.1599,1.1633,1.1639,1.164,1.1658,1.1646,1.1657,1.1654,1.1641,1.1642,1.1672,1.1673,1.1654,1.1706,1.1682,1.1687,1.1705,1.1712,1.1718,1.1717,1.1626,0,0,0,0,0,1.162,1.1637,1.1636,1.1666,1.1669,1.1663,1.1672,1.1664,1.167,1.1672,1.1672,1.1678,1.1692,1.1702,1.1715,1.1751,1.1751,1.1768,1.1774,1.1779,1.1783,1.1802,1.1809,1.173,1.173,1.1729,0,0,1.1643,1.1645,1.1657,1.1672,1.1676,1.1694,1.1666,1.1685,1.1698,1.1675,1.1701,1.1701,1.1707,1.1738,1.1752,1.174,1.1805,1.1783,1.1787,1.1788,1.1806,1.1813,1.182,1.1732,1.1731,1.1731,0,0,1.1695,1.1698,1.1723,1.1727,1.1733,1.1729,1.1735,1.1737,1.1737,1.1762,1.1745,1.176,1.1785,1.1789,1.1795,1.1847,1.1834,1.1852,1.1882,1.1901,1.1907,1.1913,1.1931,1.1938,1.1856,1.1856,1.1856,0,1.1723,1.1749,1.1738,1.1758,1.1766,1.1745,1.1771,1.1775,1.1785,1.179,1.1777,1.1807,1.1809,1.1842,1.1854,1.186,1.1866,1.1851,1.1907,1.1913,1.1917,1.1935,1.1942,1.1858,1.1858,1.1857,1.1857,0,1.1783,1.1801,1.182,1.1831,1.184,1.1863,1.1855,1.1866,1.1857,1.1854,1.1879,1.1882,1.1894,1.1901,1.1893,1.1932,1.1925,1.1909,1.1885,1.1927,1.1944,1.195,1.1861,1.186,1.186,1.1859,0,0,1.1856,1.1859,1.1866,1.1871,1.1875,1.1889,1.191,1.1923,1.1932,1.194,1.1957,1.1978,1.1964,1.197,1.1962,1.1978,1.2019,1.1961,1.1961,1.1972,1.2063,1.2075,1.2083,1.201,1.2011,1.2012,1.2062,0,1.1907,1.1944,1.1934,1.1972,1.1988,1.1969,1.1987,1.1992,1.199,1.2003,1.2,1.2015,1.1995,1.1998,1.2013,1.2011,1.2037,1.2007,1.2026,1.2027,1.2026,1.2091,1.2104,1.2152,1.2069,1.207,1.2071,0,1.1971,1.1981,1.202,1.2021,1.2028,1.2045,1.2056,1.2068,1.2073,1.207,1.2077,1.2065,1.2086,1.2061,1.209,1.2069,1.2076,1.2076,1.2078,1.208,1.2052,1.2095,1.2167,1.2174,1.2081,1.208,1.2079,0,1.2021,1.2043,1.207,1.2074,1.2076,1.2089,1.209,1.2093,1.2101,1.211,1.2115,1.2127,1.2133,1.2142,1.2133,1.2116,1.2163,1.2137,1.2161,1.2161,1.2173,1.2172,1.2246,1.2176,1.2176,1.2176,1.2176,0,1.2079,1.2103,1.2092,1.2108,1.2135,1.2123,1.215,1.2149,1.2152,1.2167,1.2151,1.2166,1.2153,1.2167,1.216,1.2185,1.2187,1.2186,1.2184,1.2187,1.2188,1.2192,1.2189,1.2178,1.2178,1.2177,1.2177,0,1.2139,1.2132,1.216,1.2159,1.216,1.218,1.2179,1.2194,1.219,1.221,1.2214,1.2207,1.2222,1.2214,1.223,1.2225,1.2257,1.2251,1.2256,1.2254,1.2279,1.2277,1.2359,1.2369,1.2292,1.2293,1.2294,0,1.2177,1.2195,1.2197,1.2206,1.2209,1.2224,1.2232,1.2221,1.223,1.2236,1.225,1.2263,1.2274,1.2299,1.2295,1.2307,1.2301,1.2328,1.2302,1.2305,1.2301,1.2301,1.2302,1.2334,1.2335,1.2336,1.2336,0,1.2245,1.224,1.2253,1.2264,1.2274,1.2282,1.2289,1.2297,1.2286,1.2296,1.2312,1.232,1.2335,1.2349,1.2359,1.236,1.2346,1.2344,1.2351,1.2355,1.2357,1.2357,1.2271,1.2343,1.2342,1.2342,1.2341,1.2341,1.2295,1.2311,1.2314,1.2328,1.2332,1.2338,1.2352,1.235,1.2362,1.2374,1.2366,1.2384,1.2388,1.24,1.2402,1.2416,1.2405,1.2414,1.2416,1.2419,1.2422,1.2355,1.2418,1.2417,1.2417,1.2417,1.2417,0,1.2362,1.2364,1.2377,1.2386,1.2397,1.2383,1.239,1.24,1.2416,1.242,1.2431,1.2448,1.2461,1.2458,1.247,1.2481,1.2475,1.2484,1.2484,1.2484,1.2431,1.2425,1.2489,1.2489,1.2489,1.2489,1.2489,1.2489,1.2399,1.2424,1.242,1.2447,1.2447,1.2465,1.247,1.2476,1.2479,1.2499,1.251,1.2508,1.2509,1.2521,1.2532,1.2531,1.2536,1.2548,1.2544,1.2495,1.2488,1.2481,1.2475,1.2549,1.2549,1.2596,1.2597,1.2597]}]]